SCP
0 0 0 0 0 0 0 0 0 0 0 0 0 0 0 0 0 0 0 0 0 0 0 0 0 0 0 0 0 0 0 0 0 0 0 0 0 0 0 0 0 0 0
0 0 0 0 0 0 0 0 0 0 0 0 0 0 0 0 0 0 0 0 0 0 0 0 0 0 0 0 0 0 0 0 0 0 0 0 0 0 0 0 0 0 0
0 0 0 0 0 0 0 0 0 0 0 0 0 0 0 0 0 0 0 0 0 0 0 0 0 0 0 0 0 0 0 0 0 0 0 0 0 0 0 0 0 0 0
0 0 0 0 0 0 0 0 0 0 0 0 0 0 0 0 0 0 0 0 0 0 0 0 0 0 0 0 0 0 0 0 0 0 0 0 0 0 0 0 0 0 0
0 0 0 0 0 0 0 0 0 0 0 0 0 0 0 0 0 0 0 0 0 0 0 0 0 0 0 0 0 0 0 0 0 0 0 0 0 0 0 0 0 0 0
0 0 0 0 0 0 0 0 0 0 0 0 0 0 0 0 0 0 0 0 0 0 0 0 0 0 0 0 0 0 0 0 0 0 0 0 0 0 0 0 0 0 0
0 0 0 0 0 0 0 0 0 0 0 0 0 0 0 0 0 0 0 0 0 0 0 0 0 0 0 0 0 0 0 0 0 0 0 0 0 0 0 0 0 0 0
0 0 0 0 0 0 0 0 0 0 0 0 0 0 0 0 0 0 0 0 0 0 0 0 0 0 0 0 0 0 0 0 0 0 0 0 0 0 0 0 0 0 0
0 0 0 0 0 0 0 0 0 0 0 0 0 0 0 0 0 0 0 0 0 0 0 0 0 0 0 0 0 0 0 0 0 0 0 0 0 0 0 0 0 0 0
0 0 0 0 0 0 0 0 0 0 0 0 0 0 0 0 0 0 0 0 0 0 0 0 0 0 0 0 0 0 0 0 0 0 0 0 0 0 0 0 0 0 0
0 0 0 0 0 0 0 0 0 0 0 0 0 0 0 0 0 0 0 0 0 0 0 0 0 0 0 0 0 0 0 0 0 0 0 0 0 0 0 0 0 0 0
0 0 0 0 0 0 0 0 0 0 0 0 0 0 0 0 0 0 0 0 0 0 0 0 0 0 0 0 0 0 0 0 0 0 0 0 0 0 0 0 0 0 0
0 0 0 0 0 0 0 0 0 0 0 0 0 0 0 0 0 0 0 0 0 0 0 0 0 0 0 0 0 0 0 0 0 0 0 0 0 0 0 0 0 0 0
0 0 0 0 0 0 0 0 0 0 0 0 0 0 0 0 0 0 0 0 0 0 0 0 0 0 0 0 0 0 0 0 0 0 0 0 0 0 0 0 0 0 0
0 0 0 0 0 0 0 0 0 0 0 0 0 0 0 0 0 0 0 0 0 0 0 0 0 0 0 0 0 0 0 0 0 0 0 0 0 0 0 0 0 0 0
0 0 0 0 0 0 0 0 0 0 0 0 0 0 0 0 0 0 0 0 0 0 0 0 0 0 0 0 0 0 0 0 0 0 0 0 0 0 0 0 0 0 0
0 0 0 0 0 0 0 0 0 0 0 0 0 0 0 0 0 0 0 0 0 0 0 0 0 0 0 0 0 0 0 0 0 0 0 0 0 0 0 0 0 0 0
0 0 0 0 0 0 0 0 0 0 0 0 0 0 0 0 0 0 0 0 0 0 0 0 0 0 0 0 0 0 0 0 0 0 0 0 0 0 0 0 0 0 0
0 0 0 0 0 0 0 0 0 0 0 0 0 0 0 0 0 0 0 0 0 0 0 0 0 0 0 0 0 0 0 0 0 0 0 0 0 0 0 0 0 0 0
0 0 0 0 0 0 0 0 0 0 0 0 0 0 0 0 0 0 0 0 0 0 0 0 0 0 0 0 0 0 0 0 0 0 0 0 0 0 0 0 0 0 0
0 0 0 0 0 0 0 0 0 0 0 0 0 0 0 0 0 0 0 0 0 0 0 0 0 0 0 0 0 0 0 0 0 0 0 0 0 0 0 0 0 0 0
0 0 0 0 0 0 0 0 0 0 0 0 0 0 0 0 0 0 0 0 0 0 0 0 0 0 0 0 0 0 0 0 0 0 0 0 0 0 0 0 0 0 0
0 0 0 0 0 0 0 0 0 0 0 0 0 0 0 0 0 0 0 0 0 0 0 0 0 0 0 0 0 0 0 0 0 0 0 0 0 0 0 0 0 0 0
0 0 0 0 0 0 0 0 0 0 0 0 0 0 0 0 0 0 0 0 0 0 0 0 0 0 0 0 0 0 0 0 0 0 0 0 0 0 0 0 0 0 0
0 0 0 0 0 0 0 0 0 0 0 0 0 0 0 0 0 0 0 0 0 0 0 0 0 0 0 0 -0 -0 0 0 -0 -0 0 0 0 0 0 0 0 0 -0
0 0 0 0 0 0 0 0 0 0 0 0 0 0 0 0 0 0 0 0 0 0 0 0 0 0 -0 0 -0 -0 -0 -0 -0 -0 -0 0 -0 0 0 0 -0 0 0
Wind_Speed_500mb
36 39 42 41 39 36 33 30 26 24 21 18 17 15 16 17 18 19 19 19 19 21 22 23 25 27 28 30 32 33 35 40 52 61 57 54 55 56 56 58 59 57 55
30 35 41 43 43 43 40 36 34 31 28 25 24 22 22 22 24 24 24 24 25 25 26 28 28 32 32 34 37 39 41 43 54 67 67 63 63 61 64 65 63 65 65
30 30 36 41 45 45 44 41 40 36 34 33 31 29 28 28 30 30 30 31 32 31 32 35 35 38 39 40 44 45 47 49 54 65 75 71 71 64 69 70 72 71 70
35 30 30 34 39 42 42 42 42 42 41 39 38 38 37 36 38 37 38 38 39 38 40 42 44 46 49 50 52 53 54 57 59 65 74 78 78 73 73 76 82 79 82
40 35 26 24 29 35 38 40 42 45 45 45 46 47 47 46 46 45 46 45 46 47 48 49 50 51 53 57 61 62 63 65 67 71 77 81 84 83 78 78 83 85 86
41 40 34 29 30 34 38 41 44 47 48 49 50 52 54 56 55 53 54 54 54 56 58 57 56 57 59 63 66 67 65 67 75 77 83 85 89 85 80 79 79 78 82
40 40 37 35 36 37 39 41 43 46 48 51 52 54 55 57 58 58 57 59 62 63 65 65 68 69 73 77 80 81 81 76 70 73 85 88 90 83 78 78 72 69 78
35 36 35 34 34 36 37 39 41 43 45 47 50 52 56 56 58 59 61 64 66 67 67 69 73 76 76 81 86 90 90 86 82 78 80 85 83 78 71 66 64 73 72
30 30 31 30 30 31 33 34 37 39 42 45 49 50 52 53 55 57 61 64 67 69 70 70 72 75 74 75 77 79 82 83 82 81 78 75 70 68 67 68 67 68 88
25 24 24 25 26 27 29 31 33 36 38 41 42 44 48 52 55 56 57 62 67 71 72 71 70 72 72 59 57 65 75 81 78 82 81 75 68 68 65 64 69 77 80
19 18 17 18 19 21 23 26 29 32 35 39 41 44 48 51 54 55 56 57 63 68 71 73 70 69 63 56 54 59 69 70 72 74 79 81 79 73 64 60 62 64 73
12 11 12 15 18 21 24 27 32 35 38 41 44 44 47 49 51 54 55 55 52 55 64 69 71 64 58 62 64 67 66 67 76 80 85 85 82 83 77 69 68 71 75
9 11 14 17 20 23 27 29 32 36 39 41 45 48 51 51 52 51 53 53 50 50 59 63 62 64 61 61 63 59 64 72 77 81 81 81 80 75 69 65 62 68 73
9 12 14 18 22 25 28 30 33 36 38 42 46 51 56 59 60 57 55 59 60 60 65 68 65 68 79 82 84 86 83 79 75 74 69 67 64 63 60 59 64 67 74
8 12 15 18 20 22 25 29 32 35 39 44 47 50 57 63 61 51 52 57 60 62 67 76 81 86 89 89 89 84 79 72 65 58 57 61 65 72 70 67 75 65 62
8 10 14 18 23 28 31 29 34 39 40 41 43 46 52 56 58 53 54 55 58 59 67 73 78 81 84 82 79 79 74 69 59 60 63 62 56 56 62 60 51 56 65
9 14 19 24 29 33 38 43 49 40 42 44 45 50 54 61 62 63 59 59 57 55 69 77 78 75 74 72 72 71 71 66 61 57 56 53 50 56 58 62 62 67 75
15 21 25 30 34 36 41 44 48 55 61 59 51 57 61 66 70 72 67 60 72 68 67 70 71 69 68 68 67 66 65 64 62 55 53 49 51 57 63 68 69 70 72
21 26 29 33 37 39 43 47 51 56 62 69 73 70 68 71 72 68 65 60 67 70 70 70 67 66 66 64 63 60 58 59 53 57 59 55 55 61 65 61 57 57 60
27 29 32 35 39 44 48 53 59 63 69 73 77 77 76 73 71 70 67 62 62 63 63 64 63 62 61 59 59 57 57 56 57 57 58 58 57 57 57 54 55 58 59
31 35 39 42 47 52 57 62 66 71 75 77 77 71 66 55 67 66 65 60 58 59 60 60 60 60 58 55 54 55 54 55 55 56 57 56 54 54 52 53 55 55 57
38 42 46 52 57 62 65 68 71 73 74 74 73 68 60 60 59 61 60 59 57 57 56 57 58 56 54 53 52 52 54 56 56 56 57 56 54 53 52 52 52 52 55
47 52 57 62 66 70 71 71 71 69 68 66 64 64 61 59 58 58 58 57 56 55 51 51 53 53 51 50 49 51 54 56 57 56 57 56 54 53 51 51 51 53 53
58 63 69 72 74 75 74 73 69 65 64 63 63 62 60 59 57 57 55 55 54 52 48 49 50 51 53 53 54 55 57 59 58 56 54 54 52 48 46 47 48 50 54
69 73 75 74 74 72 70 68 65 63 63 63 63 60 59 57 56 55 54 54 53 52 51 52 54 57 57 58 60 59 57 53 50 47 45 43 44 45 48 51 51 54 55
72 71 70 69 68 65 63 65 65 64 65 64 63 61 59 55 54 55 54 52 51 52 53 56 58 58 58 57 54 51 49 46 44 42 42 45 52 52 51 51 51 53 53
Wind_Direction_500mb
229 233 235 235 235 234 235 237 239 242 248 256 265 274 285 289 296 298 306 310 313 316 319 322 323 321 320 317 314 311 307 301 296 303 308 312 311 312 312 312 313 313 310
228 231 235 236 237 238 239 240 243 248 255 261 267 275 281 285 284 285 290 295 298 302 307 311 315 313 313 312 309 308 305 301 299 301 306 309 309 311 310 308 307 308 308
232 237 237 238 240 242 242 243 248 253 258 263 267 274 280 281 280 281 284 285 287 293 300 303 305 303 304 303 302 302 301 299 298 298 302 305 306 310 308 308 308 307 306
228 235 241 242 246 248 249 248 249 253 260 264 267 269 272 276 279 280 280 280 284 289 294 297 299 299 301 300 298 298 297 296 295 295 297 301 303 309 308 312 309 310 308
223 229 240 247 245 245 245 249 251 254 257 259 263 266 268 271 276 277 277 279 282 285 288 292 294 295 297 298 298 298 294 293 292 293 296 299 301 306 310 310 307 308 306
221 226 230 234 235 236 239 243 245 249 253 258 262 263 265 271 273 278 281 281 282 284 287 288 289 291 292 294 294 293 291 290 291 292 294 294 297 300 304 304 303 305 306
215 223 229 236 239 241 244 248 251 254 257 261 264 267 269 271 275 278 282 285 287 288 290 291 291 292 293 293 292 291 289 286 279 281 283 287 292 295 298 297 298 297 297
211 222 229 236 240 243 246 249 254 257 259 263 267 271 274 275 277 281 284 285 286 288 289 290 290 291 293 293 292 289 288 287 285 284 282 285 286 288 289 294 297 291 290
203 214 222 230 238 244 249 250 253 259 264 269 272 274 276 277 278 280 283 286 287 288 289 290 292 293 294 292 292 293 292 291 294 293 293 291 285 286 289 291 281 285 291
197 211 224 234 242 249 254 259 264 266 270 271 273 276 278 281 284 285 287 289 291 291 291 293 294 295 296 297 294 294 294 296 299 298 298 294 290 288 287 280 279 284 284
199 212 228 240 250 258 265 270 273 276 278 279 281 285 287 288 290 292 293 293 293 296 296 296 297 296 298 301 298 294 295 300 298 295 295 294 292 291 290 285 282 273 280
200 220 241 257 267 274 279 284 288 290 291 292 294 292 292 294 295 297 296 296 300 298 297 296 297 305 302 297 293 290 291 293 286 285 287 287 287 290 292 293 292 287 285
225 251 268 278 286 292 294 297 299 300 300 301 302 303 302 301 301 302 302 301 302 305 299 301 301 301 301 294 291 297 293 289 289 289 291 291 292 295 295 294 290 289 287
259 275 286 295 299 301 303 305 305 305 306 307 310 310 309 310 312 314 315 314 314 310 311 311 305 293 291 295 296 296 296 295 292 288 289 292 292 294 297 295 291 290 285
291 298 300 302 303 306 309 311 311 312 314 316 317 315 314 314 317 318 316 312 310 310 307 295 293 293 295 298 300 301 302 303 303 302 291 291 294 291 289 291 296 290 281
291 300 304 306 307 309 309 309 313 314 315 316 315 313 312 310 311 313 310 310 308 309 294 290 293 296 299 302 303 303 304 306 305 298 297 295 297 290 288 289 283 286 293
295 303 306 309 311 312 313 312 309 301 307 311 310 309 310 308 308 308 310 310 307 294 292 296 299 301 302 303 304 305 306 308 308 305 305 303 299 290 287 288 289 293 293
304 308 311 311 311 312 312 312 312 312 312 310 307 308 307 305 303 302 304 305 296 297 298 302 304 305 304 304 305 306 307 307 309 309 306 302 303 303 299 295 295 296 297
299 301 304 306 307 308 308 308 309 309 309 309 309 307 306 304 303 302 299 299 302 304 307 306 306 304 302 303 305 307 307 306 306 300 301 298 295 298 300 300 299 298 300
301 302 302 303 303 304 306 307 308 307 306 306 307 310 310 309 308 308 309 307 305 304 304 304 304 303 303 306 307 307 308 308 307 307 306 305 303 302 301 301 301 301 303
298 301 303 303 305 306 307 307 307 306 307 307 307 308 309 305 301 305 305 307 307 308 309 309 308 306 307 306 306 306 307 308 309 308 307 308 308 305 301 299 299 302 304
300 302 303 305 305 305 306 306 306 306 306 306 306 306 306 304 304 306 307 309 311 309 310 309 308 308 307 306 307 307 307 308 308 308 308 307 306 303 302 300 302 303 306
304 304 304 305 306 306 306 306 306 305 305 305 305 306 309 309 307 306 307 309 309 309 310 308 307 307 306 306 307 305 303 303 304 304 303 303 302 302 303 302 303 307 310
304 304 305 305 305 304 304 304 304 305 306 308 309 309 309 307 305 306 307 307 308 311 310 308 309 310 311 309 307 303 300 299 300 299 299 300 301 303 304 304 306 309 311
303 303 303 303 302 302 303 304 306 307 308 308 308 307 307 305 305 307 309 310 310 312 313 313 314 312 309 307 304 301 298 294 292 291 292 294 294 297 299 301 304 307 309
301 300 300 300 301 303 304 305 306 307 308 308 308 308 307 305 306 308 309 309 311 311 311 313 313 312 311 308 307 304 300 296 292 291 295 295 295 298 299 301 304 305 309
Wind_Speed_850mb
36 39 42 41 39 36 33 30 26 24 21 18 17 15 16 17 18 19 19 19 19 21 22 23 25 27 28 30 32 33 35 40 52 61 57 54 55 56 56 58 59 57 55
30 35 41 43 43 43 40 36 34 31 28 25 24 22 22 22 24 24 24 24 25 25 26 28 28 32 32 34 37 39 41 43 54 67 67 63 63 61 64 65 63 65 65
30 30 36 41 45 45 44 41 40 36 34 33 31 29 28 28 30 30 30 31 32 31 32 35 35 38 39 40 44 45 47 49 54 65 75 71 71 64 69 70 72 71 70
35 30 30 34 39 42 42 42 42 42 41 39 38 38 37 36 38 37 38 38 39 38 40 42 44 46 49 50 52 53 54 57 59 65 74 78 78 73 73 76 82 79 82
40 35 26 24 29 35 38 40 42 45 45 45 46 47 47 46 46 45 46 45 46 47 48 49 50 51 53 57 61 62 63 65 67 71 77 81 84 83 78 78 83 85 86
41 40 34 29 30 34 38 41 44 47 48 49 50 52 54 56 55 53 54 54 54 56 58 57 56 57 59 63 66 67 65 67 75 77 83 85 89 85 80 79 79 78 82
40 40 37 35 36 37 39 41 43 46 48 51 52 54 55 57 58 58 57 59 62 63 65 65 68 69 73 77 80 81 81 76 70 73 85 88 90 83 78 78 72 69 78
35 36 35 34 34 36 37 39 41 43 45 47 50 52 56 56 58 59 61 64 66 67 67 69 73 76 76 81 86 90 90 86 82 78 80 85 83 78 71 66 64 73 72
30 30 31 30 30 31 33 34 37 39 42 45 49 50 52 53 55 57 61 64 67 69 70 70 72 75 74 75 77 79 82 83 82 81 78 75 70 68 67 68 67 68 88
25 24 24 25 26 27 29 31 33 36 38 41 42 44 48 52 55 56 57 62 67 71 72 71 70 72 72 59 57 65 75 81 78 82 81 75 68 68 65 64 69 77 80
19 18 17 18 19 21 23 26 29 32 35 39 41 44 48 51 54 55 56 57 63 68 71 73 70 69 63 56 54 59 69 70 72 74 79 81 79 73 64 60 62 64 73
12 11 12 15 18 21 24 27 32 35 38 41 44 44 47 49 51 54 55 55 52 55 64 69 71 64 58 62 64 67 66 67 76 80 85 85 82 83 77 69 68 71 75
9 11 14 17 20 23 27 29 32 36 39 41 45 48 51 51 52 51 53 53 50 50 59 63 62 64 61 61 63 59 64 72 77 81 81 81 80 75 69 65 62 68 73
9 12 14 18 22 25 28 30 33 36 38 42 46 51 56 59 60 57 55 59 60 60 65 68 65 68 79 82 84 86 83 79 75 74 69 67 64 63 60 59 64 67 74
8 12 15 18 20 22 25 29 32 35 39 44 47 50 57 63 61 51 52 57 60 62 67 76 81 86 89 89 89 84 79 72 65 58 57 61 65 72 70 67 75 65 62
8 10 14 18 23 28 31 29 34 39 40 41 43 46 52 56 58 53 54 55 58 59 67 73 78 81 84 82 79 79 74 69 59 60 63 62 56 56 62 60 51 56 65
9 14 19 24 29 33 38 43 49 40 42 44 45 50 54 61 62 63 59 59 57 55 69 77 78 75 74 72 72 71 71 66 61 57 56 53 50 56 58 62 62 67 75
15 21 25 30 34 36 41 44 48 55 61 59 51 57 61 66 70 72 67 60 72 68 67 70 71 69 68 68 67 66 65 64 62 55 53 49 51 57 63 68 69 70 72
21 26 29 33 37 39 43 47 51 56 62 69 73 70 68 71 72 68 65 60 67 70 70 70 67 66 66 64 63 60 58 59 53 57 59 55 55 61 65 61 57 57 60
27 29 32 35 39 44 48 53 59 63 69 73 77 77 76 73 71 70 67 62 62 63 63 64 63 62 61 59 59 57 57 56 57 57 58 58 57 57 57 54 55 58 59
31 35 39 42 47 52 57 62 66 71 75 77 77 71 66 55 67 66 65 60 58 59 60 60 60 60 58 55 54 55 54 55 55 56 57 56 54 54 52 53 55 55 57
38 42 46 52 57 62 65 68 71 73 74 74 73 68 60 60 59 61 60 59 57 57 56 57 58 56 54 53 52 52 54 56 56 56 57 56 54 53 52 52 52 52 55
47 52 57 62 66 70 71 71 71 69 68 66 64 64 61 59 58 58 58 57 56 55 51 51 53 53 51 50 49 51 54 56 57 56 57 56 54 53 51 51 51 53 53
58 63 69 72 74 75 74 73 69 65 64 63 63 62 60 59 57 57 55 55 54 52 48 49 50 51 53 53 54 55 57 59 58 56 54 54 52 48 46 47 48 50 54
69 73 75 74 74 72 70 68 65 63 63 63 63 60 59 57 56 55 54 54 53 52 51 52 54 57 57 58 60 59 57 53 50 47 45 43 44 45 48 51 51 54 55
72 71 70 69 68 65 63 65 65 64 65 64 63 61 59 55 54 55 54 52 51 52 53 56 58 58 58 57 54 51 49 46 44 42 42 45 52 52 51 51 51 53 53
Wind_Direction_850mb
229 233 235 235 235 234 235 237 239 242 248 256 265 274 285 289 296 298 306 310 313 316 319 322 323 321 320 317 314 311 307 301 296 303 308 312 311 312 312 312 313 313 310
228 231 235 236 237 238 239 240 243 248 255 261 267 275 281 285 284 285 290 295 298 302 307 311 315 313 313 312 309 308 305 301 299 301 306 309 309 311 310 308 307 308 308
232 237 237 238 240 242 242 243 248 253 258 263 267 274 280 281 280 281 284 285 287 293 300 303 305 303 304 303 302 302 301 299 298 298 302 305 306 310 308 308 308 307 306
228 235 241 242 246 248 249 248 249 253 260 264 267 269 272 276 279 280 280 280 284 289 294 297 299 299 301 300 298 298 297 296 295 295 297 301 303 309 308 312 309 310 308
223 229 240 247 245 245 245 249 251 254 257 259 263 266 268 271 276 277 277 279 282 285 288 292 294 295 297 298 298 298 294 293 292 293 296 299 301 306 310 310 307 308 306
221 226 230 234 235 236 239 243 245 249 253 258 262 263 265 271 273 278 281 281 282 284 287 288 289 291 292 294 294 293 291 290 291 292 294 294 297 300 304 304 303 305 306
215 223 229 236 239 241 244 248 251 254 257 261 264 267 269 271 275 278 282 285 287 288 290 291 291 292 293 293 292 291 289 286 279 281 283 287 292 295 298 297 298 297 297
211 222 229 236 240 243 246 249 254 257 259 263 267 271 274 275 277 281 284 285 286 288 289 290 290 291 293 293 292 289 288 287 285 284 282 285 286 288 289 294 297 291 290
203 214 222 230 238 244 249 250 253 259 264 269 272 274 276 277 278 280 283 286 287 288 289 290 292 293 294 292 292 293 292 291 294 293 293 291 285 286 289 291 281 285 291
197 211 224 234 242 249 254 259 264 266 270 271 273 276 278 281 284 285 287 289 291 291 291 293 294 295 296 297 294 294 294 296 299 298 298 294 290 288 287 280 279 284 284
199 212 228 240 250 258 265 270 273 276 278 279 281 285 287 288 290 292 293 293 293 296 296 296 297 296 298 301 298 294 295 300 298 295 295 294 292 291 290 285 282 273 280
200 220 241 257 267 274 279 284 288 290 291 292 294 292 292 294 295 297 296 296 300 298 297 296 297 305 302 297 293 290 291 293 286 285 287 287 287 290 292 293 292 287 285
225 251 268 278 286 292 294 297 299 300 300 301 302 303 302 301 301 302 302 301 302 305 299 301 301 301 301 294 291 297 293 289 289 289 291 291 292 295 295 294 290 289 287
259 275 286 295 299 301 303 305 305 305 306 307 310 310 309 310 312 314 315 314 314 310 311 311 305 293 291 295 296 296 296 295 292 288 289 292 292 294 297 295 291 290 285
291 298 300 302 303 306 309 311 311 312 314 316 317 315 314 314 317 318 316 312 310 310 307 295 293 293 295 298 300 301 302 303 303 302 291 291 294 291 289 291 296 290 281
291 300 304 306 307 309 309 309 313 314 315 316 315 313 312 310 311 313 310 310 308 309 294 290 293 296 299 302 303 303 304 306 305 298 297 295 297 290 288 289 283 286 293
295 303 306 309 311 312 313 312 309 301 307 311 310 309 310 308 308 308 310 310 307 294 292 296 299 301 302 303 304 305 306 308 308 305 305 303 299 290 287 288 289 293 293
304 308 311 311 311 312 312 312 312 312 312 310 307 308 307 305 303 302 304 305 296 297 298 302 304 305 304 304 305 306 307 307 309 309 306 302 303 303 299 295 295 296 297
299 301 304 306 307 308 308 308 309 309 309 309 309 307 306 304 303 302 299 299 302 304 307 306 306 304 302 303 305 307 307 306 306 300 301 298 295 298 300 300 299 298 300
301 302 302 303 303 304 306 307 308 307 306 306 307 310 310 309 308 308 309 307 305 304 304 304 304 303 303 306 307 307 308 308 307 307 306 305 303 302 301 301 301 301 303
298 301 303 303 305 306 307 307 307 306 307 307 307 308 309 305 301 305 305 307 307 308 309 309 308 306 307 306 306 306 307 308 309 308 307 308 308 305 301 299 299 302 304
300 302 303 305 305 305 306 306 306 306 306 306 306 306 306 304 304 306 307 309 311 309 310 309 308 308 307 306 307 307 307 308 308 308 308 307 306 303 302 300 302 303 306
304 304 304 305 306 306 306 306 306 305 305 305 305 306 309 309 307 306 307 309 309 309 310 308 307 307 306 306 307 305 303 303 304 304 303 303 302 302 303 302 303 307 310
304 304 305 305 305 304 304 304 304 305 306 308 309 309 309 307 305 306 307 307 308 311 310 308 309 310 311 309 307 303 300 299 300 299 299 300 301 303 304 304 306 309 311
303 303 303 303 302 302 303 304 306 307 308 308 308 307 307 305 305 307 309 310 310 312 313 313 314 312 309 307 304 301 298 294 292 291 292 294 294 297 299 301 304 307 309
301 300 300 300 301 303 304 305 306 307 308 308 308 308 307 305 306 308 309 309 311 311 311 313 313 312 311 308 307 304 300 296 292 291 295 295 295 298 299 301 304 305 309